Powrót do katalogu

FLOCK 4G 20

AktywnyNaukaPO
NORAD 62636·PAYLOAD·🇺🇸 United States

Wystrzelony Jan 14, 2025 z Vandenberg Space Force Base

Loading…

Następne Przeloty (najbliższe 24 godziny)

TLE

ŚwieżeSource: Space-Track

Epoka: Sep 14, 2026, 05:14 UTC

1 62636U 25009AD  26257.21837609  .00159614  00000-0  10543-2 0  9998
2 62636  97.3777 345.7357 0001821 304.1748  55.9344 15.75119110 93034

Śledź FLOCK 4G 20 w czasie rzeczywistym z AllMySat

Download on the App Store